THORAD AGENA D DEB, 4986

Orbit data source: Space-Track

THORAD AGENA D DEB, 4986 is space debris in SSO originally from a launch on Wed, 08 Apr 1970 UTC launched from the Air Force Western Test Range (AFWTR). Debris objects in space refer to the collection of defunct objects orbiting the Earth. Examples of debris include non-operational satellites, rocket bodies, and fragments generated from explosions, collisions, or faulty payload assembly.

Loading next visibility...
Identifier
4986, 1970-025HG
Orbit
SSO
Country
Flag of USUS
Related business
Manufacturer
Unknown
Mission
Spacecraft
Bus & Motor
Unknown
Mass
Unknown
Launch date (UTC)
1970-04-08 (56 years ago)
Launch vehicle
Unknown
Launch site
Air Force Western Test Range (AFWTR)
Object type
Payload
Rocket body
Debris
Shape & HBR
Unknown shape, 0.1 m
Radar Cross Section
Medium (>0.1 m² and <1 m²)

Expand to show TLE details & history
Last TLE update: 8 hours ago

TLE from 8 hours ago
0 THORAD AGENA D DEB
1  4986U 70025HG  26263.13390940  .00000010  00000-0  92234-4 0  9994
2  4986  99.7341 146.5537 0053326 196.3861 320.4579 13.42952564763362
Epoch: 2026-09-20T03:12Z
TLE epoch observation values (Epoch: 2026-09-20T03:12:49.772Z)
Latitude
23.2085°
Longitude
-76.4897°
Altitude
1,070.326 km
Speed
7.334 km/s
True Right ascension
22h 03m 00s
True Declination
23° 05' 22"
Sunlit
Object was in full shadow at epoch
Visualization orbit readout
Latitude
Unknown
Longitude
Unknown
Altitude
Unknown
Speed
Unknown
Apparent Right ascension
Unknown
Apparent Declination
Unknown
Sunlit
N/A
Visualization observer readout
Local Sidereal Time
04:10:32
Azimuth
Unknown
Elevation
Unknown
Doppler factor
Unknown
Orbital elements
Apogee altitude
1,135.468 km
Perigee altitude
1,055.759 km
Semi-major axis
7,473.75 km
Eccentricity
0.00533
Inclination
99.7341°
RAAN
146.5537°
Arg. of periapsis
196.3861°
True anomaly
320.06686°
Mean anomaly
320.4579°
Eccentric anomaly
320.26258°
Mean motion
3.3592 °/min
Orbital period
107.17 mins
BSTAR
0.000092234

Documentation

Showing up to 5 results
|